{"data":{"norad_id":62995,"intl_designator":"2025-031Q","name":"STARLINK-32819","alt_names":[],"object_type":"PAYLOAD","status":"ACTIVE","operator":null,"country":"US","launch_date":"2025-02-11","launch_site_code":"AFETR","launch_vehicle":null,"mission":null,"orbit_class":"UNKNOWN","rcs_meters":null,"size_class":null,"mass_kg":null,"dimensions":null,"purposes":["comms"],"wikipedia_slug":null,"has_3d_model":false,"image_url":null,"decayed_at":null,"tle_current":{"epoch":"2026-09-21T07:28:12.279072Z","epoch_age_seconds":95111,"freshness":"FRESH","line1":"1 62995U 25031Q   26264.31125323  .00010185  00000+0  37907-3 0  9995","line2":"2 62995  43.0014 118.5125 0001239 265.4689  94.6021 15.27584849 91019","mean_motion":15.27584849,"eccentricity":0.0001239,"inclination_deg":43.0014,"raan_deg":118.5125,"arg_perigee_deg":265.4689,"mean_anomaly_deg":94.6021,"bstar":0.00037907,"rev_number":9101,"period_min":94.266449483488,"perigee_km":482.18447726932,"apogee_km":483.88467558596,"semimajor_km":6861.1715764276,"source":"CELESTRAK","updated_at":"2026-09-22T09:00:49.719395Z"}}}